Tracking 19717 objects as of 25-Jun-2019
HD Live streaming from Space Station
objects crossing your sky now

USA 252

Track USA 252 now!
USA 252 is classified as:


NORAD ID: 39751
Int'l Code: 2014-027A
Perigee: 35,778.5 km
Apogee: 35,810.0 km
Inclination: 2.4 °
Period: 1,436.1 minutes
Semi major axis: 42165 km
RCS: Unknown
Launch date: May 22, 2014
Source: United States (US)
Launch site: AIR FORCE EASTERN TEST RANGE (AFETR)

USA 252 is a secretive spacecraft payload believed to be part of the Satellite Data System (SDS) network.
aabbcc
Your satellite tracking list
Your tracking list is empty




NASA's NSSDC Master Catalog

Two Line Element Set (TLE):
1 39751U 14027A   19128.40968450 0.00000000  00000-0  00000-0 0    09
2 39751   2.4304 183.2345 0003736  18.6780 341.3611  1.00270000    04
Source of the keplerian elements: McCants